DW6863 Weather Reports


time (UTC)temp
C
wind
direction
speed
KPH
gust
KPH
rain 1hr
cm
rain 24hr
cm
rain mn
cm
humidity
%
barometer
mb
20220124033505 3 112 0.0 1.6 0.00 0.00 0.00 100 1028.7
20220124003519 3 292 1.6 6.4 0.00 0.00 0.00 99 1029.0
20220123235008 3 270 3.2 6.4 0.00 0.00 0.00 99 1029.0
20220123234505 4 270 3.2 4.8 0.00 0.00 0.00 99 1029.0
20220123234009 4 315 3.2 4.8 0.00 0.00 0.00 99 1029.0
20220123215016 4 292 3.2 6.4 0.00 0.00 0.00 99 1029.3
20220123204014 3 247 1.6 6.4 0.00 0.00 0.00 100 1029.7
20220123202014 3 202 0.0 1.6 0.00 0.00 0.00 100 1030.0
20220123201018 3 225 0.0 3.2 0.00 0.00 0.00 100 1030.4
20220123194504 3 315 1.6 6.4 0.00 0.00 0.00 100 1030.7
20220123194003 3 315 1.6 3.2 0.00 0.00 0.00 100 1030.7
20220123193506 3 315 1.6 6.4 0.00 0.00 0.00 100 1030.7
20220123193005 3 22 1.6 3.2 0.00 0.00 0.00 100 1030.7
20220123184504 3 315 1.6 4.8 0.00 0.00 0.00 100 1031.4
20220123184014 3 270 0.0 4.8 0.00 0.00 0.00 100 1031.4
20220123182504 2 67 0.0 4.8 0.00 0.00 0.00 100 1031.4
20220123171004 2 67 0.0 1.6 0.00 0.00 0.00 100 1031.7
20220123170507 2 180 0.0 4.8 0.00 0.00 0.00 100 1031.4
20220123170005 2 157 0.0 4.8 0.00 0.00 0.00 100 1031.4
20220123165503 2 135 0.0 1.6 0.00 0.00 0.00 100 1031.4
20220123165002 2 90 0.0 6.4 0.00 0.00 0.00 100 1031.4
20220123164507 2 45 0.0 4.8 0.00 0.00 0.00 100 1031.4
20220123164006 2 45 0.0 3.2 0.00 0.00 0.00 100 1031.4
20220123163505 2 360 0.0 1.6 0.00 0.00 0.00 100 1031.4
20220123163003 2 360 1.6 6.4 0.00 0.00 0.00 100 1031.4
20220123162514 2 67 0.0 0.0 0.00 0.00 0.00 100 1031.4
20220123162006 2 67 1.6 3.2 0.00 0.00 0.00 100 1031.4
20220123161505 2 67 3.2 6.4 0.00 0.00 0.00 100 1031.4
20220123161004 2 45 0.0 6.4 0.00 0.00 0.00 100 1031.4
20220123160503 2 90 0.0 4.8 0.00 0.00 0.00 100 1031.4
20220123160007 2 45 1.6 4.8 0.00 0.00 0.00 100 1031.4
20220123155505 2 67 3.2 6.4 0.00 0.00 0.00 100 1031.4
20220123155004 2 45 1.6 6.4 0.00 0.00 0.00 100 1031.4
20220123154502 2 45 1.6 4.8 0.00 0.00 0.00 100 1031.4
20220123154007 2 90 0.0 1.6 0.00 0.00 0.00 100 1031.4
20220123153505 2 90 0.0 4.8 0.00 0.00 0.00 100 1031.4
20220123153015 2 360 0.0 1.6 0.00 0.00 0.00 100 1031.4
20220123152502 2 45 0.0 1.6 0.00 0.00 0.00 100 1031.4
20220123152007 2 45 0.0 0.0 0.00 0.00 0.00 100 1031.4
20220123151505 2 45 0.0 0.0 0.00 0.00 0.00 100 1031.4
20220123151004 2 45 0.0 0.0 0.00 0.00 0.00 100 1031.4
20220123150503 2 45 0.0 1.6 0.00 0.00 0.00 100 1031.4
20220123150007 2 225 0.0 0.0 0.00 0.00 0.00 100 1031.4
20220123145506 2 112 0.0 1.6 0.00 0.00 0.00 100 1031.4
20220123145004 2 225 0.0 3.2 0.00 0.00 0.00 100 1031.4
20220123144503 2 180 0.0 3.2 0.00 0.00 0.00 100 1031.4
20220123144001 2 337 0.0 3.2 0.00 0.00 0.00 100 1031.4
20220123143506 2 337 0.0 1.6 0.00 0.00 0.00 100 1031.4
20220123143004 2 315 1.6 4.8 0.00 0.00 0.00 100 1031.4
20220123142503 2 45 0.0 3.2 0.00 0.00 0.00 100 1031.4
20220123142008 2 45 0.0 8.0 0.00 0.00 0.00 100 1031.4
20220123141506 2 67 0.0 3.2 0.00 0.00 0.00 100 1031.4
20220123141005 2 180 0.0 3.2 0.00 0.00 0.00 100 1031.4
20220123140503 3 315 0.0 4.8 0.00 0.00 0.00 100 1031.4
20220123140007 3 315 1.6 6.4 0.00 0.00 0.00 100 1031.4
20220123135505 3 292 4.8 6.4 0.00 0.00 0.00 100 1031.4
20220123135004 3 270 0.0 3.2 0.00 0.00 0.00 100 1031.4
20220123134501 3 180 0.0 3.2 0.00 0.00 0.00 100 1031.4
20220123134006 3 112 0.0 3.2 0.00 0.00 0.00 100 1031.4
20220123133505 3 112 0.0 3.2 0.00 0.00 0.00 100 1031.0
20220123133004 3 225 1.6 3.2 0.00 0.00 0.00 100 1031.0
20220123132502 3 90 1.6 3.2 0.00 0.00 0.00 100 1031.4
20220123132007 3 180 0.0 3.2 0.00 0.00 0.00 100 1031.4
20220123131506 3 225 0.0 3.2 0.00 0.00 0.00 100 1031.4
20220123131004 3 180 0.0 0.0 0.00 0.00 0.00 100 1031.4
20220123130502 3 180 0.0 3.2 0.00 0.00 0.00 100 1031.4
20220123130007 3 90 0.0 0.0 0.00 0.00 0.00 100 1031.4
20220123125506 3 180 0.0 0.0 0.00 0.00 0.00 100 1031.4
20220123125005 3 180 0.0 0.0 0.00 0.00 0.00 100 1031.7
20220123124502 3 180 0.0 3.2 0.00 0.00 0.00 100 1031.7
20220123124001 3 225 0.0 0.0 0.00 0.00 0.00 100 1031.7
20220123123506 3 225 0.0 3.2 0.00 0.00 0.00 100 1031.7
20220123123005 3 180 0.0 0.0 0.00 0.00 0.00 100 1031.7
20220123122503 3 180 0.0 0.0 0.00 0.00 0.00 100 1031.7
20220123122002 3 180 0.0 1.6 0.00 0.00 0.00 100 1031.7
20220123121506 3 180 0.0 0.0 0.00 0.00 0.00 100 1031.7
20220123121004 3 180 1.6 4.8 0.00 0.00 0.00 100 1031.7
20220123120503 3 225 0.0 0.0 0.00 0.00 0.00 100 1031.7
20220123120007 3 225 0.0 0.0 0.00 0.00 0.00 100 1031.7
20220123115505 2 202 0.0 0.0 0.00 0.00 0.00 100 1031.7
20220123115003 2 202 0.0 0.0 0.00 0.00 0.00 100 1031.7
20220123114502 2 180 0.0 0.0 0.00 0.00 0.00 100 1031.7
20220123114007 2 180 0.0 0.0 0.00 0.00 0.00 100 1031.7
20220123113505 2 180 0.0 1.6 0.00 0.00 0.00 100 1031.7
20220123113003 2 135 0.0 0.0 0.00 0.00 0.00 100 1031.7
20220123112502 2 135 0.0 0.0 0.00 0.00 0.00 100 1031.7